User: anonymous   Login
Location: Geroldsau
(48.7259°N, 8.2466°E)
Time: 01:20:34
(UTC+00:00)
Language:

BREEZE-M R/B - Orbit

View from above orbital plane
View from above orbital plane
View from above satellite
View from above satellite

Ground track
Ground track

The orbit data is extracted from the following two-line orbital elements,

1 32709U 08011B   21267.22745546  .00000744  00000-0  49283-2 0  9997
2 32709  48.8573 211.5812 6514775  85.0149  12.2303  3.07815002 92963
Epoch (UTC): 24 September 2021 05:27:32
Eccentricity: 0.6514775
inclination: 48.8573°
perigee height: 579 km
apogee height: 26589 km
right ascension of ascending node: 211.5812°
argument of perigee: 85.0149°
revolutions per day: 3.07815002
mean anomaly at epoch: 12.2303°
orbit number at epoch: 9296

The dashed part of the orbit path shows where the satellite is in the earth's shadow,  

DLR